This is the latest recevied weather packets stored in our database for station/object OK2ILA-14. If no packets are shown the sender has not sent any weather packets the latest 10 day(s).
| Time | Temp. | Humidity | Pressure | Rain* | Wind** | Luminosity | Snow |
|---|---|---|---|---|---|---|---|
| 1777356881 | 10° C | 51% | 1022.4 hPa | - | - | - | - |
| 1777356280 | 10.56° C | 52% | 1022.3 hPa | - | - | - | - |
| 1777355680 | 10.56° C | 53% | 1022.3 hPa | - | - | - | - |
| 1777355079 | 9.44° C | 56% | 1022.3 hPa | - | - | - | - |
| 1777354478 | 7.78° C | 60% | 1022.3 hPa | - | - | - | - |
| 1777353877 | 6.11° C | 64% | 1022.2 hPa | - | - | - | - |
| 1777353277 | 6.11° C | 65% | 1022.2 hPa | - | - | - | - |
| 1777352683 | 5.56° C | 65% | 1022 hPa | - | - | - | - |
| 1777352075 | 5.56° C | 68% | 1021.9 hPa | - | - | - | - |
| 1777351482 | 5° C | 69% | 1021.9 hPa | - | - | - | - |
| 1777350881 | 4.44° C | 70% | 1021.8 hPa | - | - | - | - |
| 1777350273 | 3.89° C | 73% | 1021.7 hPa | - | - | - | - |
| 1777349672 | 2.78° C | 76% | 1021.5 hPa | - | - | - | - |
| 1777349071 | 1.11° C | 76% | 1021.3 hPa | - | - | - | - |
| 1777348470 | 1.11° C | 76% | 1021.1 hPa | - | - | - | - |
| 1777347870 | 1.11° C | 76% | 1020.9 hPa | - | - | - | - |
| 1777347269 | 1.11° C | 76% | 1020.7 hPa | - | - | - | - |
| 1777346668 | 1.11° C | 76% | 1020.6 hPa | - | - | - | - |
| 1777346067 | 1.11° C | 76% | 1020.6 hPa | - | - | - | - |
| 1777345467 | 1.11° C | 76% | 1020.6 hPa | - | - | - | - |
| 1777344866 | 1.11° C | 76% | 1020.6 hPa | - | - | - | - |
| 1777344272 | 1.11° C | 75% | 1020.7 hPa | - | - | - | - |
| 1777343664 | 1.11° C | 76% | 1020.6 hPa | - | - | - | - |
| 1777343064 | 1.11° C | 75% | 1020.6 hPa | - | - | - | - |
| 1777342463 | 1.11° C | 74% | 1020.7 hPa | - | - | - | - |
* Rain since midnight (hover to see other rain measurements)
** Current wind speed in m/s (hover to see current wind gust speed)